Weather in Ghukasyan Street

Armenia     40°37′29″N   43°58′22″E
temp.,
°C
wind,
m/s
gust,
m/s
humid.,
%
clouds,
%
prec.,
mm/h
press.,
hPa
HPBL,
m
17 may, mon
mon1701:00+9ese435176 0.0 101431
04:00+8ese44530 0.0 101449
07:00+10ese46605 0.0 1013103
10:00+15sse594298 0.0 10111443
13:00+17sse61336100 0.0 10092609
16:00+15se6134295 0.3 10082152
19:00+13sse355363 0.0 1008143
22:00+9ssw6105828 1.5 1011222
18 may, tue
tue1801:00+6sse22654 0.8 101331
04:00+5sse44672 0.8 101248
07:00+7s23673 0.0 1013113
10:00+10wsw46524 0.0 10131398
13:00+13sw784248 0.0 10132118
16:00+14wsw683713 0.0 10112337
19:00+11nnw565932 0.1 1013504
22:00+8e22564 0.1 101514
19 may, wed
wed1901:00+8s11573 0.0 101514
04:00+7s22610 0.0 101517
07:00+8sse34660 0.0 101581
10:00+13sw48484 0.0 10141393
13:00+16sw7114486 0.1 10132554
16:00+17wsw101236100 0.1 10122846
19:00+14w47513 0.0 1013292
22:00+9ne12542 0.0 101615
20 may, thu
thu2001:00+8n22550 0.0 101723
04:00+8ene11520 0.0 101714
07:00+10s11540 0.0 101719
10:00+14ssw34440 0.0 1017863
13:00+17sw44360 0.0 10161389
16:00+17sw34340 0.0 10151506
19:00+16sse34493 0.0 1015106
22:00+12ese44462 0.0 101837
21 may, fri
fri2101:00+11se44440 0.0 101838
04:00+10ese33500 0.0 101820
07:00+12ese33550 0.0 101842
10:00+17s46410 0.0 10171299
13:00+19ssw58330 0.0 10172181
16:00+20ssw47358 0.0 10152250
19:00+13e555994 0.3 101865
22:00+13ese434815 0.6 101827